TAURUS R/B

Satellite information

Favourite Embed

Satellite Type and Status

ROCKET BODYIN ORBIT

Key statistics

Satellite TAURUS R/B at a glance.

Uptime

7827

Days in orbit

Revolutions

≈ 14.5

Per day

Orbit

SSO

Sun Synchronous Orbit

Inclination

99.1

Latest

Satellite identification and parameters

Extended collection of information and parameters for TAURUS R/B.

Object identification

Identified? True

Debris? False

Object name: TAURUS R/B

International designator: 2004-018B

Object number (NORAD): 28255

Object ID (CCSDS): 28255

Country: UNITED STATES OF AMERICA (US)

Current information (Y/N): Y

RCS size: LARGE

Orbital parameters

Period: 99.182 minutes

Inclination: 99.0841 deg

SMA: 7097.679 km

Apoapsis: 728.662 km

Periapsis: 710.426 km

RAAN: 16.6652 deg

Eccentricy: 0.00128469

Argument of periapsis: 291.0016 deg

Mean anomaly: 68.9803 deg

Mean motion: 14.51871682 rev/day

Mean motion (dot): 0.00000509 rev/day2

B* drag term: 0.00013912852 1/REarth

Two-line elements (TLE)

Creation date: Oct. 24, 2025, 2:48 a.m.

Reference frame: TEME

Reference center: EARTH

Epoch: Oct. 23, 2025, 10:44 p.m. UTC

TLE line 0: 0 TAURUS R/B

TLE line 1: 1 28255U 04018B 25296.94780367 .00000509 00000-0 13913-3 0 9997

TLE line 2: 2 28255 99.0841 16.6652 0012847 291.0016 68.9803 14.51871682133905

Live tracking on map

Real-time ground track for satellite TAURUS R/B.

In-orbit conjunctions

A list of the most updated potential collisions computed for object TAURUS R/B.

Target Orbit TCA Probability of collision Miss distance Type
NOAA 16 DEB SSO 2025-07-17 19:39:30 0.0005157804 214.0 (m) DEBRIS
COSMOS 2251 DEB LEO 2024-11-03 18:19:59 0.0001642014 509.0 (m) DEBRIS
DMSP 5D-2 F13 DEB SSO 2024-07-06 20:57:35 0.0001469294 335.0 (m) DEBRIS

Associated space launch

ROCSAT 2 (Republic of China Satellite 2) is the second high-resolution Earth observation satellite for the Taiwanese National Space Program Office (NSPO) whose mission is regional remote sensing – to collect data to be used for natural disaster evaluation, agricultural applications, urban planning strategy, environmental monitoring, and ocean surveillance. In addition, the satellite's payload will include an auroral observation instrument.

TAURUS R/B was lifted into orbit during the mission ‘Taurus 3210 | Formosat-2’, on board a Minotaur-C 3210 space rocket.

The launch took place on May 20, 2004, 5:47 p.m. from Space Launch Complex 576E.

For more information about the launch, click the button.

Launch to space Taurus 3210 | Formosat-2
Taurus 3210 | Formosat-2

Agency: N/A

Status: Launch Successful

Launch date: May 20, 2004, 5:47 p.m. UTC

Rocket: Minotaur-C 3210

Launch pad: Space Launch Complex 576E

Location: Vandenberg SFB, CA, USA

...

Latest news about this satellite

There are no fresh news available about this satellite. Check back as we update our databases every day.


Newsletter sign-up

Weekly statistics, charts and insights to help you stay on top of the space industry.